Regional Weather Roundup
Issued by NWS

Home | Current Version | Previous Version | Text Only | Print | Product List | Glossary Off
Versions: 1 2 3 4 5 6 7 8 9 10 11 12 13 14 15 16 17 18 19 20 21 22 23 24 25 26 27 28 29 30 31 32 33 34 35 36 37 38 39 40 41 42 43 44 45 46 47 48 49 50

000
ASUS45 KCYS 280010
RWRWY

WYOMING REGIONAL WEATHER ROUNDUP
NATIONAL WEATHER SERVICE CHEYENNE WY
600 PM MDT WED MAY 27 2015

NOTE:  "FAIR" INDICATES FEW OR NO CLOUDS BELOW 12,000 FEET
WITH NO SIGNIFICANT WEATHER AND/OR OBSTRUCTIONS TO VISIBILITY.

WYZ001-280100-
YELLOWSTONE NATIONAL PARK

CITY           SKY/WX    TMP DP  RH WIND       PRES   REMARKS
LK YELLOWSTONE   N/A     42  36  79 W12G21    30.16R
6HR MIN TEMP:  42; 6HR MAX TEMP:  53;

W YELLOWSTONE  NOT AVBL

$$
WYZ002>013-054>058-071-098>099-280100-
NORTHERN WYOMING

CITY           SKY/WX    TMP DP  RH WIND       PRES   REMARKS
JACKSON        NOT AVBL
CODY           FAIR      61  50  67 N10       29.97S THUNDER
GREYBULL         N/A     69  40  34 NW7       29.91S
6HR MIN TEMP:  66; 6HR MAX TEMP:  74;

WORLAND        FAIR      70  42  36 NE5       29.90F
6HR MIN TEMP:  65; 6HR MAX TEMP:  73;

SHERIDAN       FAIR      68  50  52 N5        29.94S
6HR MIN TEMP:  62; 6HR MAX TEMP:  70; 6HR PCP: TRACE;

BUFFALO        CLOUDY    64  50  60 N10       29.98S
6HR MIN TEMP:  61; 6HR MAX TEMP:  68;

GILLETTE       FAIR      65  53  65 N9        29.93F
6HR MIN TEMP:  63; 6HR MAX TEMP:  72; 6HR PCP:  0.04;

HULETT         FAIR      59  54  82 SE7       29.96S
NEWCASTLE      FAIR      70  43  37 MISG      29.95S

$$
WYZ014>020-022>026-101>103-280100-
CENTRAL WYOMING

CITY           SKY/WX    TMP DP  RH WIND       PRES   REMARKS
BIG PINEY      PTSUNNY   53  40  61 W5        30.11F
6HR MIN TEMP:  45; 6HR MAX TEMP:  58; 6HR PCP:  0.10;

PINEDALE       CLOUDY    50  41  71 NW6       30.12F
DUBOIS         MOCLDY    52  34  50 NW12      30.07F
LANDER         FAIR      58  46  64 E6        29.97F
6HR MIN TEMP:  54; 6HR MAX TEMP:  70; 6HR PCP:  0.10;

RIVERTON       PTSUNNY   59  44  57 CALM      29.98F
6HR MIN TEMP:  54; 6HR MAX TEMP:  69; 6HR PCP:  0.02;

CASPER         PTSUNNY   68  40  35 S9        29.97S
6HR MIN TEMP:  63; 6HR MAX TEMP:  71;

DOUGLAS        FAIR      72  41  32 NW10      29.96S
6HR MIN TEMP:  64; 6HR MAX TEMP:  74; 6HR PCP:  0.01;


$$
WYZ021-027>030-104>119-280100-
SOUTHERN WYOMING

CITY           SKY/WX    TMP DP  RH WIND       PRES   REMARKS
EVANSTON       FAIR      60  39  45 W16G22    30.10F
6HR MIN TEMP:  49; 6HR MAX TEMP:  61; 6HR PCP: TRACE;

KEMMERER       FAIR      55  32  41 W16G24    30.12F
FORT BRIDGER   CLOUDY    59  41  51 W10       30.13F
ROCK SPRINGS   FAIR      51  44  77 N6        30.11F
6HR MIN TEMP:  47; 6HR MAX TEMP:  63; 6HR PCP:  0.45;

DIXON          FAIR      62  41  45 S14       30.11
RAWLINS        FAIR      63  39  41 SW15      30.08S
6HR MIN TEMP:  56; 6HR MAX TEMP:  65; 6HR PCP: TRACE;

SARATOGA       MOCLDY    63  37  39 W15G23    30.11S
LARAMIE        FAIR      62  34  35 W16       30.09S
6HR MIN TEMP:  59; 6HR MAX TEMP:  65;

CHEYENNE       PTSUNNY   66  45  46 E8        30.04S
6HR MIN TEMP:  58; 6HR MAX TEMP:  68; 6HR PCP: TRACE;

TORRINGTON     FAIR      69  50  50 SE13      29.95R
6HR MIN TEMP:  68; 6HR MAX TEMP:  73; 6HR PCP: TRACE;

PINE BLUFFS    FAIR      70  45  40 E8        30.03S

$$



USA.gov is the U.S. government's official web portal to all federal, state and local government web resources and services.